User: anonymous   Login
Location: Newark
(13.6797°N, 8.5297°E)
Time: 12:25:05
(UTC+00:00)
Language:

A-11 Canister half - Orbit

View from above orbital plane
View from above orbital plane
View from above satellite
View from above satellite

Ground track
Ground track

The orbit data is extracted from the following two-line orbital elements,

1    51U 60009C   20025.18675588 -.00000127  00000-0 -39446-3 0  9999
2    51  47.2137  73.7404 0104358  95.3752 265.8952 12.18270999646493
Epoch (UTC): 25 January 2020 04:28:55
Eccentricity: 0.0104358
inclination: 47.2137°
perigee height: 1517 km
apogee height: 1683 km
right ascension of ascending node: 73.7404°
argument of perigee: 95.3752°
revolutions per day: 12.18270999
mean anomaly at epoch: 265.8952°
orbit number at epoch: 64649

The dashed part of the orbit path shows where the satellite is in the earth's shadow,  

DLR